Weather in Bugrino

Russia / Nenets Autonomous Okrug     68°46′57″N   49°18′48″E
temp.,
°C
wind,
m/s
gust,
m/s
humid.,
%
clouds,
%
prec.,
mm/h
press.,
hPa
HPBL,
m
12 august, fri
fri1200:00+10w611956 0.0 1000215
03:00+10w6109237 0.0 1001200
06:00+11w69895 0.0 1001230
09:00+10sw71089100 0.1 1001315
12:00+12w10138351 0.1 1001626
15:00+10w12168541 0.1 1002723
18:00+10w121690100 0.2 1003784
21:00+10w121792100 0.6 1003765
13 august, sat
sat1300:00+10w131890100 0.1 1002835
03:00+10w131894100 0.9 1002781
06:00+10wnw111688100 0.3 1002784
09:00+9wnw131787100 0.6 10031212
12:00+9wnw121788100 0.9 10051225
15:00+9nw111686100 1.5 10081021
18:00+9nw101484100 0.1 1010910
21:00+8nw8128629 0.1 1012775
14 august, sun
sun1400:00+8nw91281100 0.1 1014951
03:00+8nw81282100 0.1 1015983
06:00+9nw71081100 0.1 10161011
09:00+10wnw71076100 0.3 1017777
12:00+10w5673100 0.1 1018436
15:00+10w567543 0.1 1018378
18:00+10wsw4577100 0.0 1018183
21:00+10sw5678100 0.0 1017104
15 august, mon
mon1500:00+10wsw5983100 0.0 1016129
03:00+10wsw5893100 0.0 1015154
06:00+10wnw699544 0.3 1015274
09:00+11wnw91077100 0.3 1016597
12:00+11wnw91080100 0.1 1016596
15:00+12wnw1012737 0.2 1018628
18:00+10nw9118086 0.0 1019727
21:00+10nw81176100 0.1 1021808
16 august, tue
tue1600:00+10nw71073100 0.1 1021423
03:00+9nw588582 0.1 1023318
06:00+9nw4683100 0.0 1024403
09:00+9wsw3384100 0.3 1024302
12:00+10ssw5687100 0.3 1024292
15:00+10s5683100 0.3 1023212
18:00+11sse5685100 0.0 1021111
21:00+11s459082 0.1 102057